Whiteman AFB, MO

5:14 PM CDT on October 19, 2017 (GMT -0500)
Whiteman Air Force Base

Weather History for KSZL - September, 2013

Change the Weather History Date:

Monday, September 23, 2013

  Actual Average Record
Temperature  
Mean Temperature 64 °F -  
Max Temperature 77 °F 75 °F 91 °F (2007)
Min Temperature 51 °F 53 °F 37 °F (2012)
Degree Days  
Heating Degree Days 1    
Growing Degree Days 14 (Base 50)    
Moisture  
Dew Point 54 °F    
Average Humidity 73    
Maximum Humidity 100    
Minimum Humidity 45    
Precipitation  
Precipitation 0.00 in - - ()
Sea Level Pressure  
Sea Level Pressure 29.90 in    
Wind  
Wind Speed 7 mph (SE)    
Max Wind Speed 16 mph    
Max Gust Speed 20 mph    
Visibility 10 miles    
Events      
Averages and records for this station are not official NWS values.
T = Trace of Precipitation, MM = Missing Value Source: NWS Daily Summary

Daily Weather History Graph

Daily Weather History Graph

Search for Another Location

Airport or City:

Trip Planner

Search our weather history database for the weather conditions in past years. The results will help you decide how hot, cold, wet, or windy it might be!

Date:

Astronomy

Sep. 23, 2013 Rise Set
Actual Time 7:03 AM CDT 7:09 PM CDT
Civil Twilight 6:36 AM CDT 7:35 PM CDT
Nautical Twilight 6:05 AM CDT 8:06 PM CDT
Astronomical Twilight 5:33 AM CDT 8:38 PM CDT
Moon 9:44 PM CDT (9/23) 11:19 AM CDT (9/23)
Length of Visible Light 12h 59m
Length of Day
12h 06m
Waning Gibbous, 81% of the Moon is Illuminated
Sep 23
Waning Gibbous
Sep 26
Last Quarter
Oct 4
New
Oct 11
First Quarter
Oct 18
Full

Hourly Weather History & Observations

Time (CDT) Temp. Dew Point Humidity Pressure Visibility Wind Dir Wind Speed Gust Speed Precip Events Conditions
12:58 AM 56.3 °F 53.1 °F 89% 29.92 in 10.0 mi SE 4.6 mph - N/A   Clear
1:58 AM 54.3 °F 53.6 °F 97% 29.92 in 10.0 mi SE 4.6 mph - N/A   Clear
2:58 AM 54.3 °F 54.0 °F 99% 29.91 in 10.0 mi SE 4.6 mph - N/A   Clear
3:55 AM 53.1 °F 52.9 °F 99% 29.91 in 10.0 mi SE 5.8 mph - N/A   Clear
4:58 AM 51.8 °F 51.8 °F 100% 29.93 in 10.0 mi SE 5.8 mph - N/A   Clear
5:58 AM 52.5 °F 52.5 °F 100% 29.94 in 10.0 mi SSE 5.8 mph - N/A   Clear
6:58 AM 52.3 °F 52.3 °F 100% 29.94 in 10.0 mi SE 5.8 mph - N/A   Clear
7:58 AM 54.5 °F 54.1 °F 99% 29.95 in 10.0 mi SE 6.9 mph - N/A   Clear
8:58 AM 59.7 °F 56.3 °F 88% 29.95 in 10.0 mi SSE 8.1 mph - N/A   Clear
9:58 AM 64.8 °F 56.3 °F 74% 29.97 in 10.0 mi South 11.5 mph - N/A   Clear
10:58 AM 68.7 °F 55.2 °F 62% 29.98 in 10.0 mi South 12.7 mph - N/A   Clear
11:58 AM 71.1 °F 54.9 °F 56% 29.96 in 10.0 mi South 10.4 mph - N/A   Clear
12:58 PM 72.9 °F 54.7 °F 53% 29.93 in 10.0 mi SE 10.4 mph 16.1 mph N/A   Clear
1:58 PM 74.8 °F 54.3 °F 49% 29.91 in 10.0 mi SE 6.9 mph - N/A   Clear
2:58 PM 75.7 °F 52.9 °F 45% 29.88 in 10.0 mi SSE 10.4 mph - N/A   Clear
3:58 PM 76.8 °F 55.4 °F 47% 29.85 in 10.0 mi SE 10.4 mph - N/A   Clear
4:10 PM 77.0 °F 55.4 °F 47% 29.85 in 10.0 mi SE 16.1 mph - N/A   Clear
4:58 PM 75.7 °F 53.1 °F 45% 29.84 in 10.0 mi SE 12.7 mph 19.6 mph N/A   Clear
5:58 PM 74.5 °F 53.6 °F 48% 29.85 in 10.0 mi SE 10.4 mph - N/A   Clear
6:58 PM 70.3 °F 55.0 °F 58% 29.85 in 10.0 mi SE 8.1 mph - N/A   Clear
7:58 PM 64.0 °F 55.6 °F 74% 29.84 in 10.0 mi ESE 8.1 mph - N/A   Clear
8:58 PM 64.6 °F 55.6 °F 73% 29.87 in 10.0 mi SE 9.2 mph - N/A   Clear
9:58 PM 62.6 °F 56.1 °F 79% 29.88 in 10.0 mi SE 9.2 mph - N/A   Clear
10:58 PM 62.6 °F 55.6 °F 78% 29.88 in 10.0 mi SSE 8.1 mph - N/A   Clear
11:58 PM 63.0 °F 55.9 °F 78% 29.88 in 10.0 mi SSE 10.4 mph - N/A   Clear